Location: Hope
(40.9110°N, 74.9680°W)
Time: 14:59:49
(UTC-04:00)

Tiangong 2 - Visible Passes

Search period start: 24 May 2019 00:00
Search period end: 03 June 2019 00:00
Orbit: 379 x 387 km, 42.8° (Epoch: 24 May)

Date Brightness Start Highest point End Pass type
(mag) Time Alt. Az. Time Alt. Az. Time Alt. Az.
24 May 1.4 22:22:01 10° WNW 22:25:08 63° N 22:25:37 53° NE visible
25 May 1.6 21:21:57 10° W 21:25:03 58° N 21:28:09 10° E visible
25 May 2.8 22:58:43 10° WNW 23:00:24 29° W 23:00:24 29° W visible
26 May 1.1 21:58:40 10° WNW 22:01:48 77° NNE 22:02:59 35° E visible
27 May 1.4 20:58:36 10° WNW 21:01:43 62° N 21:04:49 10° E visible
27 May 2.0 22:35:22 10° W 22:37:41 38° WSW 22:37:41 38° WSW visible
28 May 1.0 21:35:16 10° WNW 21:38:24 77° SSW 21:40:13 23° ESE visible
29 May 2.2 22:12:07 10° W 22:14:54 29° SSW 22:14:56 29° SSW visible
30 May 1.5 21:11:54 10° W 21:14:57 49° SSW 21:17:30 14° SE visible
31 May 3.0 21:49:05 10° WSW 21:51:18 18° SSW 21:52:15 16° S visible
02 Jun 3.7 21:27:07 10° SW 21:27:37 10° SW 21:28:07 10° SSW visible
